#datetime,building,power
2022-07-28T00:00:00,rvs,18.81
2022-07-28T00:01:00,rvs,18.88
2022-07-28T00:02:00,rvs,19.40
2022-07-28T00:03:00,rvs,19.79
2022-07-28T00:04:00,rvs,20.13
2022-07-28T00:05:00,rvs,20.24
2022-07-28T00:06:00,rvs,22.62
2022-07-28T00:07:00,rvs,22.32
2022-07-28T00:08:00,rvs,22.39
2022-07-28T00:09:00,rvs,23.48
2022-07-28T00:10:00,rvs,24.28
2022-07-28T00:11:00,rvs,20.89
2022-07-28T00:12:00,rvs,21.51
2022-07-28T00:13:00,rvs,22.18
2022-07-28T00:14:00,rvs,21.51
2022-07-28T00:15:00,rvs,21.75
2022-07-28T00:16:00,rvs,21.73
2022-07-28T00:17:00,rvs,23.43
2022-07-28T00:18:00,rvs,22.91
2022-07-28T00:19:00,rvs,22.08
2022-07-28T00:20:00,rvs,22.19
2022-07-28T00:21:00,rvs,23.41
2022-07-28T00:22:00,rvs,25.97
2022-07-28T00:23:00,rvs,22.23
2022-07-28T00:24:00,rvs,22.17
2022-07-28T00:25:00,rvs,18.92
2022-07-28T00:26:00,rvs,19.36
2022-07-28T00:27:00,rvs,19.78
2022-07-28T00:28:00,rvs,17.08
2022-07-28T00:29:00,rvs,17.22
2022-07-28T00:30:00,rvs,17.35
2022-07-28T00:31:00,rvs,15.19
2022-07-28T00:32:00,rvs,15.09
2022-07-28T00:33:00,rvs,14.81
2022-07-28T00:34:00,rvs,15.15
2022-07-28T00:35:00,rvs,28.18
2022-07-28T00:36:00,rvs,28.59
2022-07-28T00:37:00,rvs,28.23
2022-07-28T00:38:00,rvs,28.06
2022-07-28T00:39:00,rvs,27.97
2022-07-28T00:40:00,rvs,15.63
2022-07-28T00:41:00,rvs,15.51
2022-07-28T00:42:00,rvs,12.65
2022-07-28T00:43:00,rvs,14.82
2022-07-28T00:44:00,rvs,16.59
2022-07-28T00:45:00,rvs,17.73
2022-07-28T00:46:00,rvs,18.62
2022-07-28T00:47:00,rvs,20.92
2022-07-28T00:48:00,rvs,19.94
2022-07-28T00:49:00,rvs,19.82
2022-07-28T00:50:00,rvs,20.53
2022-07-28T00:51:00,rvs,17.07
2022-07-28T00:52:00,rvs,16.66
2022-07-28T00:53:00,rvs,16.56
2022-07-28T00:54:00,rvs,16.66
2022-07-28T00:55:00,rvs,20.90
2022-07-28T00:56:00,rvs,20.90
2022-07-28T00:57:00,rvs,20.93
2022-07-28T00:58:00,rvs,20.46
2022-07-28T00:59:00,rvs,21.40
2022-07-28T01:00:00,rvs,20.59
2022-07-28T01:01:00,rvs,20.58
2022-07-28T01:02:00,rvs,20.73
2022-07-28T01:03:00,rvs,22.02
2022-07-28T01:04:00,rvs,17.63
2022-07-28T01:05:00,rvs,16.78
2022-07-28T01:06:00,rvs,13.40
2022-07-28T01:07:00,rvs,13.26
2022-07-28T01:08:00,rvs,13.00
2022-07-28T01:09:00,rvs,13.14
2022-07-28T01:10:00,rvs,13.00
2022-07-28T01:11:00,rvs,12.52
2022-07-28T01:12:00,rvs,12.70
2022-07-28T01:13:00,rvs,11.85
2022-07-28T01:14:00,rvs,11.87
2022-07-28T01:15:00,rvs,11.83
2022-07-28T01:16:00,rvs,11.77
2022-07-28T01:17:00,rvs,17.01
2022-07-28T01:18:00,rvs,17.50
2022-07-28T01:19:00,rvs,18.32
2022-07-28T01:20:00,rvs,19.42
2022-07-28T01:21:00,rvs,19.83
2022-07-28T01:22:00,rvs,19.93
2022-07-28T01:23:00,rvs,22.46
2022-07-28T01:24:00,rvs,25.70
2022-07-28T01:25:00,rvs,22.98
2022-07-28T01:26:00,rvs,22.23
2022-07-28T01:27:00,rvs,18.22
2022-07-28T01:28:00,rvs,18.59
2022-07-28T01:29:00,rvs,18.23
2022-07-28T01:30:00,rvs,19.41
2022-07-28T01:31:00,rvs,20.64
2022-07-28T01:32:00,rvs,20.99
2022-07-28T01:33:00,rvs,21.20
2022-07-28T01:34:00,rvs,21.66
2022-07-28T01:35:00,rvs,21.78
2022-07-28T01:36:00,rvs,22.78
2022-07-28T01:37:00,rvs,22.78
2022-07-28T01:38:00,rvs,19.42
2022-07-28T01:39:00,rvs,14.87
2022-07-28T01:40:00,rvs,15.67
2022-07-28T01:41:00,rvs,17.57
2022-07-28T01:42:00,rvs,17.77
2022-07-28T01:43:00,rvs,17.27
2022-07-28T01:44:00,rvs,17.68
2022-07-28T01:45:00,rvs,18.00
2022-07-28T01:46:00,rvs,17.77
2022-07-28T01:47:00,rvs,18.05
2022-07-28T01:48:00,rvs,17.74
2022-07-28T01:49:00,rvs,19.54
2022-07-28T01:50:00,rvs,20.62
2022-07-28T01:51:00,rvs,20.72
2022-07-28T01:52:00,rvs,15.58
2022-07-28T01:53:00,rvs,15.17
2022-07-28T01:54:00,rvs,15.23
2022-07-28T01:55:00,rvs,15.49
2022-07-28T01:56:00,rvs,11.62
2022-07-28T01:57:00,rvs,11.52
2022-07-28T01:58:00,rvs,11.97
2022-07-28T01:59:00,rvs,14.30
2022-07-28T02:00:00,rvs,17.13
2022-07-28T02:01:00,rvs,19.19
2022-07-28T02:02:00,rvs,19.94
2022-07-28T02:03:00,rvs,21.30
2022-07-28T02:04:00,rvs,23.44
2022-07-28T02:05:00,rvs,24.85
2022-07-28T02:06:00,rvs,24.30
2022-07-28T02:07:00,rvs,23.57
2022-07-28T02:08:00,rvs,23.24
2022-07-28T02:09:00,rvs,23.66
2022-07-28T02:10:00,rvs,24.24
2022-07-28T02:11:00,rvs,24.24
2022-07-28T02:12:00,rvs,20.47
2022-07-28T02:13:00,rvs,16.34
2022-07-28T02:14:00,rvs,18.31
2022-07-28T02:15:00,rvs,18.78
2022-07-28T02:16:00,rvs,17.66
2022-07-28T02:17:00,rvs,17.50
2022-07-28T02:18:00,rvs,12.09
2022-07-28T02:19:00,rvs,11.88
2022-07-28T02:20:00,rvs,11.84
2022-07-28T02:21:00,rvs,11.53
2022-07-28T02:22:00,rvs,11.46
2022-07-28T02:23:00,rvs,12.03
2022-07-28T02:24:00,rvs,11.93
2022-07-28T02:25:00,rvs,12.41
2022-07-28T02:26:00,rvs,12.43
2022-07-28T02:27:00,rvs,12.90
2022-07-28T02:28:00,rvs,11.93
2022-07-28T02:29:00,rvs,11.95
2022-07-28T02:30:00,rvs,12.00
2022-07-28T02:31:00,rvs,12.03
2022-07-28T02:32:00,rvs,11.97
2022-07-28T02:33:00,rvs,12.16
2022-07-28T02:34:00,rvs,11.94
2022-07-28T02:35:00,rvs,11.80
2022-07-28T02:36:00,rvs,11.77
2022-07-28T02:37:00,rvs,11.82
2022-07-28T02:38:00,rvs,12.21
2022-07-28T02:39:00,rvs,12.52
2022-07-28T02:40:00,rvs,14.52
2022-07-28T02:41:00,rvs,14.48
2022-07-28T02:42:00,rvs,14.63
2022-07-28T02:43:00,rvs,17.57
2022-07-28T02:44:00,rvs,18.14
2022-07-28T02:45:00,rvs,18.95
2022-07-28T02:46:00,rvs,20.20
2022-07-28T02:47:00,rvs,21.05
2022-07-28T02:48:00,rvs,20.46
2022-07-28T02:49:00,rvs,20.74
2022-07-28T02:50:00,rvs,24.24
2022-07-28T02:51:00,rvs,25.25
2022-07-28T02:52:00,rvs,25.46
2022-07-28T02:53:00,rvs,21.63
2022-07-28T02:54:00,rvs,18.52
2022-07-28T02:55:00,rvs,15.27
2022-07-28T02:56:00,rvs,16.80
2022-07-28T02:57:00,rvs,17.21
2022-07-28T02:58:00,rvs,17.02
2022-07-28T02:59:00,rvs,17.42
2022-07-28T03:00:00,rvs,20.55
2022-07-28T03:01:00,rvs,19.73
2022-07-28T03:02:00,rvs,19.76
2022-07-28T03:03:00,rvs,18.97
2022-07-28T03:04:00,rvs,19.33
2022-07-28T03:05:00,rvs,18.49
2022-07-28T03:06:00,rvs,18.53
2022-07-28T03:07:00,rvs,18.77
2022-07-28T03:08:00,rvs,18.65
2022-07-28T03:09:00,rvs,18.38
2022-07-28T03:10:00,rvs,18.21
2022-07-28T03:11:00,rvs,18.38
2022-07-28T03:12:00,rvs,18.44
2022-07-28T03:13:00,rvs,17.98
2022-07-28T03:14:00,rvs,14.33
2022-07-28T03:15:00,rvs,14.44
2022-07-28T03:16:00,rvs,14.43
2022-07-28T03:17:00,rvs,13.81
2022-07-28T03:18:00,rvs,11.98
2022-07-28T03:19:00,rvs,12.82
2022-07-28T03:20:00,rvs,14.12
2022-07-28T03:21:00,rvs,14.58
2022-07-28T03:22:00,rvs,11.84
2022-07-28T03:23:00,rvs,11.81
2022-07-28T03:24:00,rvs,11.78
2022-07-28T03:25:00,rvs,11.76
2022-07-28T03:26:00,rvs,11.80
2022-07-28T03:27:00,rvs,11.37
2022-07-28T03:28:00,rvs,11.42
2022-07-28T03:29:00,rvs,11.51
2022-07-28T03:30:00,rvs,11.53
2022-07-28T03:31:00,rvs,11.56
2022-07-28T03:32:00,rvs,12.04
2022-07-28T03:33:00,rvs,11.95
2022-07-28T03:34:00,rvs,13.90
2022-07-28T03:35:00,rvs,14.84
2022-07-28T03:36:00,rvs,12.39
2022-07-28T03:37:00,rvs,12.35
2022-07-28T03:38:00,rvs,12.33
2022-07-28T03:39:00,rvs,13.09
2022-07-28T03:40:00,rvs,14.37
2022-07-28T03:41:00,rvs,14.61
2022-07-28T03:42:00,rvs,28.43
2022-07-28T03:43:00,rvs,28.91
2022-07-28T03:44:00,rvs,29.90
2022-07-28T03:45:00,rvs,29.67
2022-07-28T03:46:00,rvs,16.22
2022-07-28T03:47:00,rvs,15.98
2022-07-28T03:48:00,rvs,12.29
2022-07-28T03:49:00,rvs,12.97
2022-07-28T03:50:00,rvs,14.39
2022-07-28T03:51:00,rvs,14.39
2022-07-28T03:52:00,rvs,14.22
2022-07-28T03:53:00,rvs,14.64
2022-07-28T03:54:00,rvs,14.87
2022-07-28T03:55:00,rvs,15.19
2022-07-28T03:56:00,rvs,15.55
2022-07-28T03:57:00,rvs,11.86
2022-07-28T03:58:00,rvs,12.21
2022-07-28T03:59:00,rvs,12.69
2022-07-28T04:00:00,rvs,12.08
2022-07-28T04:01:00,rvs,12.09
2022-07-28T04:02:00,rvs,12.03
2022-07-28T04:03:00,rvs,11.97
2022-07-28T04:04:00,rvs,11.97
2022-07-28T04:05:00,rvs,12.41
2022-07-28T04:06:00,rvs,12.46
2022-07-28T04:07:00,rvs,11.84
2022-07-28T04:08:00,rvs,11.76
2022-07-28T04:09:00,rvs,11.71
2022-07-28T04:10:00,rvs,11.71
2022-07-28T04:11:00,rvs,11.71
2022-07-28T04:12:00,rvs,11.58
2022-07-28T04:13:00,rvs,12.07
2022-07-28T04:14:00,rvs,12.05
2022-07-28T04:15:00,rvs,12.04
2022-07-28T04:16:00,rvs,11.57
2022-07-28T04:17:00,rvs,11.51
2022-07-28T04:18:00,rvs,11.62
2022-07-28T04:19:00,rvs,11.50
2022-07-28T04:20:00,rvs,11.49
2022-07-28T04:21:00,rvs,12.72
2022-07-28T04:22:00,rvs,13.85
2022-07-28T04:23:00,rvs,14.20
2022-07-28T04:24:00,rvs,14.51
2022-07-28T04:25:00,rvs,15.05
2022-07-28T04:26:00,rvs,16.87
2022-07-28T04:27:00,rvs,21.10
2022-07-28T04:28:00,rvs,22.37
2022-07-28T04:29:00,rvs,23.78
2022-07-28T04:30:00,rvs,25.53
2022-07-28T04:31:00,rvs,25.77
2022-07-28T04:32:00,rvs,25.90
2022-07-28T04:33:00,rvs,25.66
2022-07-28T04:34:00,rvs,25.94
2022-07-28T04:35:00,rvs,25.86
2022-07-28T04:36:00,rvs,25.65
2022-07-28T04:37:00,rvs,25.12
2022-07-28T04:38:00,rvs,22.13
2022-07-28T04:39:00,rvs,22.32
2022-07-28T04:40:00,rvs,21.74
2022-07-28T04:41:00,rvs,13.86
2022-07-28T04:42:00,rvs,13.88
2022-07-28T04:43:00,rvs,13.78
2022-07-28T04:44:00,rvs,13.97
2022-07-28T04:45:00,rvs,13.95
2022-07-28T04:46:00,rvs,13.86
2022-07-28T04:47:00,rvs,13.78
2022-07-28T04:48:00,rvs,13.88
2022-07-28T04:49:00,rvs,13.59
2022-07-28T04:50:00,rvs,15.83
2022-07-28T04:51:00,rvs,17.42
2022-07-28T04:52:00,rvs,18.19
2022-07-28T04:53:00,rvs,18.63
2022-07-28T04:54:00,rvs,19.57
2022-07-28T04:55:00,rvs,22.42
2022-07-28T04:56:00,rvs,22.30
2022-07-28T04:57:00,rvs,22.95
2022-07-28T04:58:00,rvs,23.69
2022-07-28T04:59:00,rvs,25.83
2022-07-28T05:00:00,rvs,23.89
2022-07-28T05:01:00,rvs,23.97
2022-07-28T05:02:00,rvs,23.46
2022-07-28T05:03:00,rvs,24.12
2022-07-28T05:04:00,rvs,24.46
2022-07-28T05:05:00,rvs,24.00
2022-07-28T05:06:00,rvs,19.62
2022-07-28T05:07:00,rvs,15.66
2022-07-28T05:08:00,rvs,12.39
2022-07-28T05:09:00,rvs,12.23
2022-07-28T05:10:00,rvs,12.33
2022-07-28T05:11:00,rvs,12.56
2022-07-28T05:12:00,rvs,12.58
2022-07-28T05:13:00,rvs,14.22
2022-07-28T05:14:00,rvs,14.81
2022-07-28T05:15:00,rvs,15.48
2022-07-28T05:16:00,rvs,15.17
2022-07-28T05:17:00,rvs,15.58
2022-07-28T05:18:00,rvs,16.27
2022-07-28T05:19:00,rvs,16.02
2022-07-28T05:20:00,rvs,15.79
2022-07-28T05:21:00,rvs,16.36
2022-07-28T05:22:00,rvs,16.17
2022-07-28T05:23:00,rvs,15.46
2022-07-28T05:24:00,rvs,15.62
2022-07-28T05:25:00,rvs,15.78
2022-07-28T05:26:00,rvs,15.96
2022-07-28T05:27:00,rvs,16.36
2022-07-28T05:28:00,rvs,16.89
2022-07-28T05:29:00,rvs,17.91
2022-07-28T05:30:00,rvs,18.30
2022-07-28T05:31:00,rvs,18.32
2022-07-28T05:32:00,rvs,14.89
2022-07-28T05:33:00,rvs,17.96
2022-07-28T05:34:00,rvs,18.18
2022-07-28T05:35:00,rvs,18.16
2022-07-28T05:36:00,rvs,18.99
2022-07-28T05:37:00,rvs,15.92
2022-07-28T05:38:00,rvs,15.58
2022-07-28T05:39:00,rvs,15.39
2022-07-28T05:40:00,rvs,15.30
2022-07-28T05:41:00,rvs,15.33
2022-07-28T05:42:00,rvs,16.33
2022-07-28T05:43:00,rvs,16.63
2022-07-28T05:44:00,rvs,16.16
2022-07-28T05:45:00,rvs,11.56
2022-07-28T05:46:00,rvs,11.52
2022-07-28T05:47:00,rvs,11.51
2022-07-28T05:48:00,rvs,11.42
2022-07-28T05:49:00,rvs,11.49
2022-07-28T05:50:00,rvs,11.85
2022-07-28T05:51:00,rvs,11.84
2022-07-28T05:52:00,rvs,11.86
2022-07-28T05:53:00,rvs,11.84
2022-07-28T05:54:00,rvs,12.33
2022-07-28T05:55:00,rvs,12.23
2022-07-28T05:56:00,rvs,12.28
2022-07-28T05:57:00,rvs,12.01
2022-07-28T05:58:00,rvs,11.59
2022-07-28T05:59:00,rvs,11.62
2022-07-28T06:00:00,rvs,12.08
2022-07-28T06:01:00,rvs,12.03
2022-07-28T06:02:00,rvs,11.64
2022-07-28T06:03:00,rvs,11.56
2022-07-28T06:04:00,rvs,11.51
2022-07-28T06:05:00,rvs,11.53
2022-07-28T06:06:00,rvs,11.73
2022-07-28T06:07:00,rvs,12.10
2022-07-28T06:08:00,rvs,11.99
2022-07-28T06:09:00,rvs,11.46
2022-07-28T06:10:00,rvs,11.49
2022-07-28T06:11:00,rvs,11.46
2022-07-28T06:12:00,rvs,11.11
2022-07-28T06:13:00,rvs,11.16
2022-07-28T06:14:00,rvs,11.09
2022-07-28T06:15:00,rvs,11.02
2022-07-28T06:16:00,rvs,11.03
2022-07-28T06:17:00,rvs,11.03
2022-07-28T06:18:00,rvs,16.10
2022-07-28T06:19:00,rvs,16.68
2022-07-28T06:20:00,rvs,16.70
2022-07-28T06:21:00,rvs,16.69
2022-07-28T06:22:00,rvs,18.41
2022-07-28T06:23:00,rvs,18.46
2022-07-28T06:24:00,rvs,17.77
2022-07-28T06:25:00,rvs,17.84
2022-07-28T06:26:00,rvs,17.86
2022-07-28T06:27:00,rvs,17.64
2022-07-28T06:28:00,rvs,17.42
2022-07-28T06:29:00,rvs,17.15
2022-07-28T06:30:00,rvs,16.71
2022-07-28T06:31:00,rvs,16.40
2022-07-28T06:32:00,rvs,16.70
2022-07-28T06:33:00,rvs,17.93
2022-07-28T06:34:00,rvs,20.12
2022-07-28T06:35:00,rvs,19.55
2022-07-28T06:36:00,rvs,19.57
2022-07-28T06:37:00,rvs,20.25
2022-07-28T06:38:00,rvs,21.10
2022-07-28T06:39:00,rvs,15.95
2022-07-28T06:40:00,rvs,15.62
2022-07-28T06:41:00,rvs,28.70
2022-07-28T06:42:00,rvs,28.38
2022-07-28T06:43:00,rvs,28.27
2022-07-28T06:44:00,rvs,15.69
2022-07-28T06:45:00,rvs,14.78
2022-07-28T06:46:00,rvs,17.47
2022-07-28T06:47:00,rvs,17.02
2022-07-28T06:48:00,rvs,15.15
2022-07-28T06:49:00,rvs,15.62
2022-07-28T06:50:00,rvs,16.22
2022-07-28T06:51:00,rvs,16.79
2022-07-28T06:52:00,rvs,13.35
2022-07-28T06:53:00,rvs,12.17
2022-07-28T06:54:00,rvs,12.03
2022-07-28T06:55:00,rvs,11.88
2022-07-28T06:56:00,rvs,13.60
2022-07-28T06:57:00,rvs,14.46
2022-07-28T06:58:00,rvs,14.93
2022-07-28T06:59:00,rvs,15.14
2022-07-28T07:00:00,rvs,16.17
2022-07-28T07:01:00,rvs,15.57
2022-07-28T07:02:00,rvs,15.41
2022-07-28T07:03:00,rvs,18.87
2022-07-28T07:04:00,rvs,18.32
2022-07-28T07:05:00,rvs,18.59
2022-07-28T07:06:00,rvs,15.31
2022-07-28T07:07:00,rvs,16.46
2022-07-28T07:08:00,rvs,16.72
2022-07-28T07:09:00,rvs,16.32
2022-07-28T07:10:00,rvs,16.53
2022-07-28T07:11:00,rvs,16.42
2022-07-28T07:12:00,rvs,17.86
2022-07-28T07:13:00,rvs,20.05
2022-07-28T07:14:00,rvs,18.75
2022-07-28T07:15:00,rvs,18.36
2022-07-28T07:16:00,rvs,18.22
2022-07-28T07:17:00,rvs,18.20
2022-07-28T07:18:00,rvs,22.48
2022-07-28T07:19:00,rvs,23.63
2022-07-28T07:20:00,rvs,24.22
2022-07-28T07:21:00,rvs,26.54
2022-07-28T07:22:00,rvs,24.21
2022-07-28T07:23:00,rvs,23.57
2022-07-28T07:24:00,rvs,23.66
2022-07-28T07:25:00,rvs,24.19
2022-07-28T07:26:00,rvs,27.06
2022-07-28T07:27:00,rvs,26.74
2022-07-28T07:28:00,rvs,27.25
2022-07-28T07:29:00,rvs,25.24
2022-07-28T07:30:00,rvs,25.48
2022-07-28T07:31:00,rvs,25.96
2022-07-28T07:32:00,rvs,24.10
2022-07-28T07:33:00,rvs,23.39
2022-07-28T07:34:00,rvs,24.04
2022-07-28T07:35:00,rvs,20.52
2022-07-28T07:36:00,rvs,21.22
2022-07-28T07:37:00,rvs,24.99
2022-07-28T07:38:00,rvs,23.74
2022-07-28T07:39:00,rvs,23.92
2022-07-28T07:40:00,rvs,24.94
2022-07-28T07:41:00,rvs,26.85
2022-07-28T07:42:00,rvs,24.62
2022-07-28T07:43:00,rvs,24.96
2022-07-28T07:44:00,rvs,24.67
2022-07-28T07:45:00,rvs,24.23
2022-07-28T07:46:00,rvs,25.73
2022-07-28T07:47:00,rvs,25.75
2022-07-28T07:48:00,rvs,26.30
2022-07-28T07:49:00,rvs,25.05
2022-07-28T07:50:00,rvs,37.12
2022-07-28T07:51:00,rvs,27.08
2022-07-28T07:52:00,rvs,23.52
2022-07-28T07:53:00,rvs,24.19
2022-07-28T07:54:00,rvs,24.13
2022-07-28T07:55:00,rvs,25.93
2022-07-28T07:56:00,rvs,25.61
2022-07-28T07:57:00,rvs,25.17
2022-07-28T07:58:00,rvs,25.59
2022-07-28T07:59:00,rvs,28.52
2022-07-28T08:00:00,rvs,32.78
2022-07-28T08:01:00,rvs,31.61
2022-07-28T08:02:00,rvs,31.51
2022-07-28T08:03:00,rvs,32.55
2022-07-28T08:04:00,rvs,30.83
2022-07-28T08:05:00,rvs,29.60
2022-07-28T08:06:00,rvs,29.00
2022-07-28T08:07:00,rvs,29.25
2022-07-28T08:08:00,rvs,27.92
2022-07-28T08:09:00,rvs,24.62
2022-07-28T08:10:00,rvs,24.14
2022-07-28T08:11:00,rvs,25.20
2022-07-28T08:12:00,rvs,24.67
2022-07-28T08:13:00,rvs,27.55
2022-07-28T08:14:00,rvs,29.93
2022-07-28T08:15:00,rvs,45.91
2022-07-28T08:16:00,rvs,29.62
2022-07-28T08:17:00,rvs,35.01
2022-07-28T08:18:00,rvs,32.50
2022-07-28T08:19:00,rvs,30.19
2022-07-28T08:20:00,rvs,23.29
2022-07-28T08:21:00,rvs,22.82
2022-07-28T08:22:00,rvs,22.86
2022-07-28T08:23:00,rvs,22.77
2022-07-28T08:24:00,rvs,22.21
2022-07-28T08:25:00,rvs,22.84
2022-07-28T08:26:00,rvs,25.09
2022-07-28T08:27:00,rvs,22.67
2022-07-28T08:28:00,rvs,22.30
2022-07-28T08:29:00,rvs,21.80
2022-07-28T08:30:00,rvs,22.71
2022-07-28T08:31:00,rvs,20.93
2022-07-28T08:32:00,rvs,18.98
2022-07-28T08:33:00,rvs,18.93
2022-07-28T08:34:00,rvs,15.90
2022-07-28T08:35:00,rvs,15.45
2022-07-28T08:36:00,rvs,18.82
2022-07-28T08:37:00,rvs,19.74
2022-07-28T08:38:00,rvs,19.87
2022-07-28T08:39:00,rvs,20.79
2022-07-28T08:40:00,rvs,19.99
2022-07-28T08:41:00,rvs,19.28
2022-07-28T08:42:00,rvs,19.76
2022-07-28T08:43:00,rvs,19.17
2022-07-28T08:44:00,rvs,19.00
2022-07-28T08:45:00,rvs,19.11
2022-07-28T08:46:00,rvs,15.35
2022-07-28T08:47:00,rvs,14.73
2022-07-28T08:48:00,rvs,15.86
2022-07-28T08:49:00,rvs,18.27
2022-07-28T08:50:00,rvs,20.07
2022-07-28T08:51:00,rvs,20.62
2022-07-28T08:52:00,rvs,20.07
2022-07-28T08:53:00,rvs,20.44
2022-07-28T08:54:00,rvs,20.95
2022-07-28T08:55:00,rvs,21.01
2022-07-28T08:56:00,rvs,20.59
2022-07-28T08:57:00,rvs,19.43
2022-07-28T08:58:00,rvs,16.82
2022-07-28T08:59:00,rvs,16.43
2022-07-28T09:00:00,rvs,16.37
2022-07-28T09:01:00,rvs,16.19
2022-07-28T09:02:00,rvs,16.03
2022-07-28T09:03:00,rvs,16.09
2022-07-28T09:04:00,rvs,16.20
2022-07-28T09:05:00,rvs,18.87
2022-07-28T09:06:00,rvs,19.15
2022-07-28T09:07:00,rvs,19.38
2022-07-28T09:08:00,rvs,21.07
2022-07-28T09:09:00,rvs,23.63
2022-07-28T09:10:00,rvs,23.27
2022-07-28T09:11:00,rvs,23.40
2022-07-28T09:12:00,rvs,24.28
2022-07-28T09:13:00,rvs,27.57
2022-07-28T09:14:00,rvs,40.44
2022-07-28T09:15:00,rvs,42.24
2022-07-28T09:16:00,rvs,41.17
2022-07-28T09:17:00,rvs,28.48
2022-07-28T09:18:00,rvs,30.71
2022-07-28T09:19:00,rvs,27.09
2022-07-28T09:20:00,rvs,26.80
2022-07-28T09:21:00,rvs,25.38
2022-07-28T09:22:00,rvs,25.03
2022-07-28T09:23:00,rvs,24.72
2022-07-28T09:24:00,rvs,24.86
2022-07-28T09:25:00,rvs,25.29
2022-07-28T09:26:00,rvs,25.14
2022-07-28T09:27:00,rvs,25.02
2022-07-28T09:28:00,rvs,25.44
2022-07-28T09:29:00,rvs,25.94
2022-07-28T09:30:00,rvs,28.86
2022-07-28T09:31:00,rvs,31.97
2022-07-28T09:32:00,rvs,32.34
2022-07-28T09:33:00,rvs,33.91
2022-07-28T09:34:00,rvs,29.84
2022-07-28T09:35:00,rvs,28.33
2022-07-28T09:36:00,rvs,27.83
2022-07-28T09:37:00,rvs,27.99
2022-07-28T09:38:00,rvs,28.66
2022-07-28T09:39:00,rvs,30.59
2022-07-28T09:40:00,rvs,27.54
2022-07-28T09:41:00,rvs,23.83
2022-07-28T09:42:00,rvs,19.57
2022-07-28T09:43:00,rvs,19.74
2022-07-28T09:44:00,rvs,22.54
2022-07-28T09:45:00,rvs,23.07
2022-07-28T09:46:00,rvs,22.47
2022-07-28T09:47:00,rvs,23.11
2022-07-28T09:48:00,rvs,22.97
2022-07-28T09:49:00,rvs,22.80
2022-07-28T09:50:00,rvs,23.14
2022-07-28T09:51:00,rvs,25.70
2022-07-28T09:52:00,rvs,26.22
2022-07-28T09:53:00,rvs,22.97
2022-07-28T09:54:00,rvs,23.76
2022-07-28T09:55:00,rvs,19.63
2022-07-28T09:56:00,rvs,19.90
2022-07-28T09:57:00,rvs,22.44
2022-07-28T09:58:00,rvs,21.28
2022-07-28T09:59:00,rvs,21.81
2022-07-28T10:00:00,rvs,21.57
2022-07-28T10:01:00,rvs,21.86
2022-07-28T10:02:00,rvs,21.37
2022-07-28T10:03:00,rvs,22.12
2022-07-28T10:04:00,rvs,22.68
2022-07-28T10:05:00,rvs,22.72
2022-07-28T10:06:00,rvs,22.63
2022-07-28T10:07:00,rvs,19.74
2022-07-28T10:08:00,rvs,19.56
2022-07-28T10:09:00,rvs,21.69
2022-07-28T10:10:00,rvs,23.69
2022-07-28T10:11:00,rvs,25.74
2022-07-28T10:12:00,rvs,30.13
2022-07-28T10:13:00,rvs,32.64
2022-07-28T10:14:00,rvs,35.36
2022-07-28T10:15:00,rvs,36.48
2022-07-28T10:16:00,rvs,47.42
2022-07-28T10:17:00,rvs,34.84
2022-07-28T10:18:00,rvs,37.55
2022-07-28T10:19:00,rvs,31.46
2022-07-28T10:20:00,rvs,32.47
2022-07-28T10:21:00,rvs,32.61
2022-07-28T10:22:00,rvs,38.63
2022-07-28T10:23:00,rvs,31.58
2022-07-28T10:24:00,rvs,32.15
2022-07-28T10:25:00,rvs,31.70
2022-07-28T10:26:00,rvs,31.18
2022-07-28T10:27:00,rvs,27.16
2022-07-28T10:28:00,rvs,21.95
2022-07-28T10:29:00,rvs,22.45
2022-07-28T10:30:00,rvs,21.66
2022-07-28T10:31:00,rvs,23.90
2022-07-28T10:32:00,rvs,26.98
2022-07-28T10:33:00,rvs,27.22
2022-07-28T10:34:00,rvs,27.40
2022-07-28T10:35:00,rvs,21.13
2022-07-28T10:36:00,rvs,21.01
2022-07-28T10:37:00,rvs,23.25
2022-07-28T10:38:00,rvs,23.81
2022-07-28T10:39:00,rvs,20.96
2022-07-28T10:40:00,rvs,20.83
2022-07-28T10:41:00,rvs,21.24
2022-07-28T10:42:00,rvs,17.54
2022-07-28T10:43:00,rvs,18.94
2022-07-28T10:44:00,rvs,19.30
2022-07-28T10:45:00,rvs,20.43
2022-07-28T10:46:00,rvs,20.05
2022-07-28T10:47:00,rvs,23.15
2022-07-28T10:48:00,rvs,27.43
2022-07-28T10:49:00,rvs,29.09
2022-07-28T10:50:00,rvs,30.54
2022-07-28T10:51:00,rvs,28.83
2022-07-28T10:52:00,rvs,26.06
2022-07-28T10:53:00,rvs,27.25
2022-07-28T10:54:00,rvs,28.34
2022-07-28T10:55:00,rvs,27.94
2022-07-28T10:56:00,rvs,27.82
2022-07-28T10:57:00,rvs,27.30
2022-07-28T10:58:00,rvs,27.13
2022-07-28T10:59:00,rvs,30.26
2022-07-28T11:00:00,rvs,31.25
2022-07-28T11:01:00,rvs,29.37
2022-07-28T11:02:00,rvs,28.78
2022-07-28T11:03:00,rvs,29.21
2022-07-28T11:04:00,rvs,29.13
2022-07-28T11:05:00,rvs,27.07
2022-07-28T11:06:00,rvs,21.03
2022-07-28T11:07:00,rvs,20.74
2022-07-28T11:08:00,rvs,20.58
2022-07-28T11:09:00,rvs,20.88
2022-07-28T11:10:00,rvs,22.94
2022-07-28T11:11:00,rvs,22.44
2022-07-28T11:12:00,rvs,22.38
2022-07-28T11:13:00,rvs,22.92
2022-07-28T11:14:00,rvs,22.71
2022-07-28T11:15:00,rvs,23.00
2022-07-28T11:16:00,rvs,23.12
2022-07-28T11:17:00,rvs,17.72
2022-07-28T11:18:00,rvs,17.31
2022-07-28T11:19:00,rvs,16.59
2022-07-28T11:20:00,rvs,19.89
2022-07-28T11:21:00,rvs,20.40
2022-07-28T11:22:00,rvs,17.13
2022-07-28T11:23:00,rvs,20.67
2022-07-28T11:24:00,rvs,21.75
2022-07-28T11:25:00,rvs,21.78
2022-07-28T11:26:00,rvs,25.56
2022-07-28T11:27:00,rvs,26.05
2022-07-28T11:28:00,rvs,27.04
2022-07-28T11:29:00,rvs,28.31
2022-07-28T11:30:00,rvs,30.33
2022-07-28T11:31:00,rvs,30.09
2022-07-28T11:32:00,rvs,30.40
2022-07-28T11:33:00,rvs,34.74
2022-07-28T11:34:00,rvs,37.64
2022-07-28T11:35:00,rvs,34.03
2022-07-28T11:36:00,rvs,37.21
2022-07-28T11:37:00,rvs,36.45
2022-07-28T11:38:00,rvs,23.82
2022-07-28T11:39:00,rvs,23.54
2022-07-28T11:40:00,rvs,23.16
2022-07-28T11:41:00,rvs,26.59
2022-07-28T11:42:00,rvs,26.23
2022-07-28T11:43:00,rvs,26.29
2022-07-28T11:44:00,rvs,25.95
2022-07-28T11:45:00,rvs,23.00
2022-07-28T11:46:00,rvs,22.92
2022-07-28T11:47:00,rvs,23.51
2022-07-28T11:48:00,rvs,23.48
2022-07-28T11:49:00,rvs,23.76
2022-07-28T11:50:00,rvs,26.46
2022-07-28T11:51:00,rvs,27.44
2022-07-28T11:52:00,rvs,27.14
2022-07-28T11:53:00,rvs,30.43
2022-07-28T11:54:00,rvs,34.03
2022-07-28T11:55:00,rvs,35.48
2022-07-28T11:56:00,rvs,41.52
2022-07-28T11:57:00,rvs,38.37
2022-07-28T11:58:00,rvs,38.95
2022-07-28T11:59:00,rvs,42.16
2022-07-28T12:00:00,rvs,37.40
2022-07-28T12:01:00,rvs,37.49
2022-07-28T12:02:00,rvs,33.87
2022-07-28T12:03:00,rvs,34.01
2022-07-28T12:04:00,rvs,34.21
2022-07-28T12:05:00,rvs,35.02
2022-07-28T12:06:00,rvs,33.08
2022-07-28T12:07:00,rvs,36.73
2022-07-28T12:08:00,rvs,35.99
2022-07-28T12:09:00,rvs,34.86
2022-07-28T12:10:00,rvs,28.92
2022-07-28T12:11:00,rvs,33.31
2022-07-28T12:12:00,rvs,35.89
2022-07-28T12:13:00,rvs,36.81
2022-07-28T12:14:00,rvs,55.61
2022-07-28T12:15:00,rvs,51.40
2022-07-28T12:16:00,rvs,49.30
2022-07-28T12:17:00,rvs,52.68
2022-07-28T12:18:00,rvs,49.20
2022-07-28T12:19:00,rvs,32.80
2022-07-28T12:20:00,rvs,33.72
2022-07-28T12:21:00,rvs,32.84
2022-07-28T12:22:00,rvs,29.53
2022-07-28T12:23:00,rvs,33.31
2022-07-28T12:24:00,rvs,31.59
2022-07-28T12:25:00,rvs,23.73
2022-07-28T12:26:00,rvs,29.07
2022-07-28T12:27:00,rvs,28.89
2022-07-28T12:28:00,rvs,22.18
2022-07-28T12:29:00,rvs,24.60
2022-07-28T12:30:00,rvs,27.30
2022-07-28T12:31:00,rvs,27.19
2022-07-28T12:32:00,rvs,27.52
2022-07-28T12:33:00,rvs,28.15
2022-07-28T12:34:00,rvs,25.59
2022-07-28T12:35:00,rvs,26.22
2022-07-28T12:36:00,rvs,26.63
2022-07-28T12:37:00,rvs,29.00
2022-07-28T12:38:00,rvs,25.98
2022-07-28T12:39:00,rvs,22.72
2022-07-28T12:40:00,rvs,22.65
2022-07-28T12:41:00,rvs,25.97
2022-07-28T12:42:00,rvs,28.75
2022-07-28T12:43:00,rvs,33.42
2022-07-28T12:44:00,rvs,30.65
2022-07-28T12:45:00,rvs,30.35
2022-07-28T12:46:00,rvs,34.07
2022-07-28T12:47:00,rvs,31.09
2022-07-28T12:48:00,rvs,31.52
2022-07-28T12:49:00,rvs,30.59
2022-07-28T12:50:00,rvs,34.44
2022-07-28T12:51:00,rvs,36.92
2022-07-28T12:52:00,rvs,30.36
2022-07-28T12:53:00,rvs,30.30
2022-07-28T12:54:00,rvs,30.22
2022-07-28T12:55:00,rvs,25.57
2022-07-28T12:56:00,rvs,29.04
2022-07-28T12:57:00,rvs,29.28
2022-07-28T12:58:00,rvs,30.55
2022-07-28T12:59:00,rvs,31.00
2022-07-28T13:00:00,rvs,34.78
2022-07-28T13:01:00,rvs,35.29
2022-07-28T13:02:00,rvs,39.23
2022-07-28T13:03:00,rvs,37.98
2022-07-28T13:04:00,rvs,38.28
2022-07-28T13:05:00,rvs,43.11
2022-07-28T13:06:00,rvs,39.19
2022-07-28T13:07:00,rvs,36.14
2022-07-28T13:08:00,rvs,38.09
2022-07-28T13:09:00,rvs,40.21
2022-07-28T13:10:00,rvs,33.17
2022-07-28T13:11:00,rvs,32.95
2022-07-28T13:12:00,rvs,32.56
2022-07-28T13:13:00,rvs,32.13
2022-07-28T13:14:00,rvs,32.87
2022-07-28T13:15:00,rvs,30.25
2022-07-28T13:16:00,rvs,26.96
2022-07-28T13:17:00,rvs,25.25
2022-07-28T13:18:00,rvs,31.09